一网星座-0550星 (ONEWEB-0550)

导读 | 星芒AI

ONEWE-0550 是 OneWeb 卫星通信星座计划中的一颗低轨通信卫星,旨在为全球提供高速互联网服务。该卫星采用模块化设计,具备高容量和高效率的通信能力,支持偏远和农村地区的网络接入。作为 OneWeb 扩展其卫星网络的一部分,ONEWE-0550 与其他卫星协同工作,增强系统覆盖和稳定性,助力实现全球数字连接。

基本信息
目录编号:
56052
目录名称:
ONEWEB-0550
国际标识:
2023-043G
轨道中心:
EARTH
卫星名称:
一网星座-0550星
卫星全名:
一网星座-0550星 (ONEWEB-0550)
卫星状态:
在轨 (已飞行996 天)
发射日期:
2023-03-26 UTC
国别 :
英国 (GB)
星等 :
--
轨道信息
数据来源 国际轨道数据 AOE轨道数据
星历时间 2025-12-15T14:51:54+0800
19小时前
查看轨道信息
2025-12-14T07:00:00+0800
2天前
查看轨道信息
半长轴 7555.854km 7555.846km
偏心率 0.0001826 0.0001895
轨道倾角 87.922° 87.923°
近地点辐角 80.866° 87.104°
升交点赤经 280.662° 280.927°
平近点角 279.268° 78.619°
近地点 1176.339km 1176.279km
远地点 1179.099km 1179.143km
周期 108.939分钟 108.939分钟
每日圈数 13.218358 13.218379
详细信息
平衡模式:
三轴稳定
覆盖范围:
全球
运营商:
一网卫星公司
运营商所在国:
英国
制造商(研发单位):
一网卫星公司
制造商所在国:
英国
使用方式:
暂无
卫星简介
OneWeb卫星网络由648颗重约125公斤的微型卫星组成,运行在1200公里的轨道上。 每颗卫星都能够提供至少每秒8千兆位的吞吐量,以使用其高吞吐量的Ku频段有效载荷为家庭和移动平台提供互联网接入。该卫星仍在工作。
2D轨道图
3D轨道图
轨道高度分析图
轨道倾角分析图
轨道综合分析图
查看轨道综合分析图